Regional Weather Roundup
Issued by NWS Goodland, KS

Home | Current Version | Previous Version | Graphics & Text | Print | Product List | Glossary On
Versions: 1 2 3 4 5 6 7 8 9 10 11 12 13 14 15 16 17 18 19 20 21 22 23 24 25 26 27 28 29 30 31 32 33 34 35 36 37 38 39 40 41 42 43 44 45 46 47 48 49 50
000
ASUS43 KGLD 240208
RWRGLD

GOODLAND FORECAST AREA HOURLY WEATHER ROUNDUP
NATIONAL WEATHER SERVICE GOODLAND KS
800 PM MDT THU MAR 23 2017

...OFFICIAL OBSERVATIONS...

CITY           SKY/WX    TMP DP  RH WIND       PRES   REMARKS
GOODLAND KS    CLOUDY    70  37  29 S28G37    29.51R
HILL CITY KS   LGT RAIN  61  54  77 W15       29.66R
IMPERIAL NEB   CLOUDY    71  30  21 N6        29.49R
MCCOOK NEB     CLOUDY    73  47  39 S30G43    29.48R HAZE
AKRON CO       CLOUDY    66  21  18 W3        29.54S
BURLINGTON CO  CLOUDY    65  25  22 W14       29.50F
LIMON CO       CLOUDY    61  20  20 W3        29.57F
$$

...UNOFFICIAL OBSERVATIONS...

CITY           SKY/WX    TMP DP  RH WIND       PRES   REMARKS
LENORA KS        N/A     58  32  37 W12         N/A
NORTON KS      HVY RAIN  57  52  82 S17G41    29.67R
SHARON SPRINGS   N/A     67  46  47 S20G29      N/A
TRENTON NEB      N/A     73  32  22 S20G26      N/A
YUMA CO        FAIR      68  25  19 W9        29.50F
$$



USA.gov is the U.S. government's official web portal to all federal, state and local government web resources and services.